RH
34 69 100 99 100 97 93 82 99 17 19 68 95 100 83 89 87 72 67 72 51 49 66 78 76 81 72 53 31 20 15 12 8 5 4 5 5 6 6 8 8 8 7 6
41 39 41 53 85 92 100 36 51 54 34 83 98 100 100 94 81 84 65 56 47 61 80 84 90 66 56 40 30 26 21 15 9 6 5 6 6 7 9 9 8 7 7 6
46 43 52 97 42 40 48 100 100 91 41 100 100 100 96 95 69 70 62 52 48 78 72 73 62 50 41 44 32 22 19 14 10 7 7 7 7 10 10 9 8 7 6 6
100 87 76 34 30 87 96 90 100 97 97 100 100 100 87 99 78 47 45 71 75 82 69 64 62 60 48 46 34 31 20 15 13 11 9 7 10 11 10 8 8 7 7 8
44 79 53 41 79 75 100 52 85 100 100 100 100 96 100 87 75 70 71 83 86 70 62 48 45 57 53 48 47 47 36 19 10 8 8 10 13 11 9 8 7 8 10 11
45 44 52 32 38 39 92 99 100 100 98 100 100 100 93 100 72 95 95 91 97 96 98 78 50 47 65 59 60 65 41 19 12 9 10 14 13 10 10 8 10 12 14 16
42 43 39 38 61 60 92 100 100 94 93 95 100 100 91 100 98 56 78 98 96 100 98 99 77 68 51 47 62 38 41 26 12 10 15 15 11 11 10 11 13 15 18 19
89 43 38 39 51 100 98 79 97 93 72 82 98 96 99 96 99 67 61 88 72 76 91 88 94 79 73 71 34 23 19 15 12 13 17 14 12 12 12 15 17 19 19 18
100 96 34 43 53 71 97 85 100 100 88 68 82 76 81 65 55 54 48 51 69 63 72 90 88 91 96 47 20 20 14 13 11 17 18 14 14 15 16 18 21 21 18 16
56 50 46 77 78 46 68 78 92 100 100 100 85 98 88 80 71 61 34 42 56 68 60 65 91 95 81 52 28 18 13 11 11 20 18 16 17 19 20 22 22 20 17 15
38 41 48 43 76 91 51 44 71 97 99 100 94 81 81 90 83 77 50 33 45 81 52 33 48 71 79 32 17 15 14 15 13 21 18 18 20 23 24 24 20 16 14 12
28 33 68 82 69 92 61 43 42 100 100 100 100 81 77 99 90 77 75 59 48 83 65 49 77 92 76 17 18 18 22 17 15 23 20 22 24 27 27 23 16 14 12 12
22 29 35 55 99 78 65 46 47 67 100 100 98 81 77 84 75 81 72 72 65 55 89 64 67 82 40 24 22 24 22 16 16 23 23 25 27 29 26 18 14 10 11 11
17 21 27 34 89 99 77 55 50 51 64 98 100 87 68 69 57 48 59 69 79 88 90 95 89 54 32 26 22 26 17 16 23 25 26 26 28 27 19 14 10 10 10 10
8 12 19 26 34 96 90 62 54 53 56 55 67 85 75 63 65 55 48 53 55 95 99 96 73 64 36 28 31 30 18 20 28 28 28 25 24 20 14 11 11 11 10 11
5 6 12 16 24 32 98 97 56 59 60 64 100 81 47 60 78 57 46 44 39 46 98 99 64 39 31 33 39 30 22 27 30 30 26 20 18 15 12 11 12 12 12 12
7 4 7 13 15 25 30 65 60 62 64 50 40 68 92 62 75 72 54 42 36 37 53 93 63 43 53 36 32 27 34 35 33 32 23 17 15 12 12 13 13 13 12 12
77 12 4 6 11 16 26 27 27 31 41 46 38 82 100 59 54 72 60 46 34 30 29 37 46 38 41 35 29 25 40 37 37 33 21 16 14 13 14 14 15 14 13 12
100 98 15 4 6 12 18 27 26 21 25 33 38 40 92 67 39 52 60 47 33 28 29 36 34 33 30 32 39 47 43 39 38 30 20 16 15 15 15 16 16 15 14 14
100 80 50 4 4 7 14 19 27 22 19 23 27 28 25 28 37 56 55 49 36 41 53 49 56 45 35 31 44 48 43 41 38 27 19 16 16 16 17 17 17 17 16 16
93 70 53 5 3 6 7 14 20 26 23 18 21 23 22 28 56 65 60 50 39 40 47 49 52 50 38 37 32 44 43 41 38 25 19 18 19 18 17 19 19 18 18 18
98 95 92 33 3 4 6 8 15 20 25 23 18 21 63 63 41 57 63 61 62 51 47 55 48 35 41 59 48 47 44 46 35 22 20 24 23 20 19 21 20 20 20 21
99 100 96 46 3 3 4 7 12 16 20 23 19 20 78 71 42 52 62 58 50 45 49 49 46 35 58 68 62 60 53 44 29 24 28 28 24 21 22 22 22 22 23 24
99 94 33 18 3 3 4 6 10 12 17 18 17 17 35 86 69 60 67 60 58 58 57 50 49 59 71 55 60 57 48 38 29 30 33 29 23 24 25 24 24 26 27 29
100 17 13 4 3 3 4 5 8 10 15 16 15 18 45 49 54 69 69 59 58 57 52 54 62 74 61 68 62 53 48 39 37 38 34 28 27 28 27 28 30 30 32 36
100 25 8 3 3 3 4 7 8 12 14 14 14 19 35 41 45 64 63 59 58 60 58 64 75 54 56 74 67 55 47 43 42 41 38 32 30 30 31 32 35 39 45 63
100 99 5 4 3 5 6 8 11 13 14 17 19 20 34 42 60 64 67 71 58 54 67 69 63 68 73 60 52 51 50 49 49 49 41 36 35 36 37 49 55 67 91 99
Wind_Speed
59 54 44 45 34 40 43 46 45 46 49 45 38 40 47 52 36 29 30 30 33 36 42 46 46 48 38 37 37 35 35 34 32 33 34 33 32 31 31 31 31 30 29 29
62 60 57 56 47 37 34 48 47 48 49 41 40 39 35 38 48 50 49 47 46 40 41 44 42 40 35 33 34 32 31 32 33 33 34 33 32 31 30 30 29 27 28 27
62 59 56 52 55 54 50 38 38 46 47 38 39 40 46 48 41 45 43 39 39 35 32 32 36 36 36 35 33 32 32 31 33 34 34 33 32 30 30 28 26 26 25 25
60 58 64 59 52 45 47 45 40 44 41 38 38 37 44 43 38 36 34 36 38 42 40 41 45 42 42 38 32 32 30 31 33 34 34 32 31 30 28 26 25 24 23 24
64 65 64 61 52 45 38 49 41 40 42 39 39 41 39 42 39 37 37 43 43 40 35 34 41 45 45 38 34 33 33 34 33 34 33 32 31 28 26 24 23 23 23 24
58 66 70 59 56 48 39 40 39 44 44 43 39 47 49 34 44 46 45 48 50 51 40 37 38 43 44 40 36 35 34 33 35 35 33 31 29 26 25 24 23 23 23 24
49 59 65 59 49 44 49 39 47 49 47 40 41 45 39 33 39 45 50 54 51 54 41 41 37 35 41 39 36 38 38 37 36 34 33 31 28 27 25 24 23 23 24 26
36 52 62 56 59 48 46 54 47 49 49 48 44 43 46 50 44 46 44 52 52 52 54 49 41 36 35 37 38 39 36 38 35 35 33 31 29 26 25 25 25 25 26 27
40 40 51 58 62 68 54 48 46 50 45 43 47 49 44 48 57 48 42 47 52 53 50 55 52 42 40 39 38 37 37 37 35 35 34 30 29 27 28 27 26 26 28 29
55 47 53 52 49 61 70 65 58 48 50 42 37 28 31 40 49 48 45 43 42 52 51 47 51 48 50 45 46 43 40 39 38 35 34 31 30 29 29 28 28 29 30 32
56 50 54 52 55 50 63 71 63 52 53 51 44 39 41 36 37 42 51 46 42 46 46 50 54 50 51 48 46 42 39 39 37 35 35 33 31 31 30 30 29 30 31 33
50 49 67 56 59 60 65 68 70 56 61 50 49 47 42 42 36 34 43 54 48 49 46 48 52 58 54 48 47 43 41 40 37 37 37 34 33 32 32 31 30 31 32 34
54 57 68 62 59 60 66 65 67 74 58 56 58 53 47 45 40 38 40 48 51 54 53 51 51 52 50 49 47 43 44 41 39 40 38 34 34 34 32 31 31 32 33 34
59 61 64 62 64 61 65 65 69 71 76 66 57 54 51 49 46 43 43 44 49 57 54 51 51 52 50 50 46 45 45 44 41 41 37 36 37 35 34 33 32 33 34 35
62 66 63 62 66 70 66 65 66 69 71 69 64 67 61 53 50 48 48 49 47 51 59 57 53 49 49 49 47 47 46 44 42 40 38 38 37 35 35 33 33 35 35 36
56 65 69 69 69 74 80 72 69 65 69 69 63 60 59 55 51 50 52 50 50 49 52 57 60 56 52 49 49 49 49 45 43 41 40 39 37 37 35 34 35 36 36 38
51 66 74 74 74 73 76 84 78 69 65 68 70 61 59 58 57 47 48 49 52 51 50 55 59 62 54 49 50 50 46 43 42 42 41 38 38 36 35 36 36 37 37 39
29 42 64 76 73 74 77 78 82 75 69 66 67 68 69 61 58 51 47 47 52 54 51 52 61 59 54 52 52 51 46 45 45 43 40 40 38 36 37 36 36 38 38 40
22 29 46 69 75 75 77 78 76 76 72 69 67 69 74 67 58 51 52 49 52 51 49 50 54 52 50 49 52 50 47 46 44 41 41 40 37 38 38 37 38 38 40 41
28 32 30 57 72 73 73 75 75 73 70 69 67 64 65 65 57 56 56 52 52 51 47 47 49 47 47 50 52 48 46 46 44 43 42 39 39 39 39 38 39 40 41 42
28 31 28 49 68 71 68 73 77 74 67 68 68 64 59 58 60 60 59 54 54 53 50 45 48 49 48 49 51 49 50 47 44 42 40 40 40 40 39 39 41 42 42 42
27 29 31 32 58 69 67 68 71 73 72 67 66 65 59 56 62 62 58 54 53 51 49 43 46 49 48 49 51 50 48 44 42 41 42 40 40 40 40 42 42 43 43 43
27 27 29 32 49 61 63 62 63 67 69 71 66 65 63 59 63 62 58 55 54 50 47 44 47 49 49 51 48 46 43 43 44 44 41 41 41 41 41 43 43 43 43 44
22 33 23 31 46 55 56 55 57 58 65 67 66 66 63 62 63 62 59 57 56 46 43 42 46 45 46 46 47 46 47 47 46 42 41 42 42 42 43 44 44 43 44 44
26 18 14 30 41 46 51 52 52 56 62 63 65 66 63 62 62 61 59 56 53 47 45 44 47 48 44 42 46 49 48 45 43 43 43 43 43 44 45 44 45 44 44 43
14 21 9 26 36 43 45 46 48 53 57 60 62 62 62 61 61 61 58 55 52 47 43 46 48 46 44 43 46 47 46 46 45 44 42 43 45 45 45 45 45 44 43 43
10 9 3 21 32 38 40 41 47 49 52 54 55 60 62 60 57 57 55 53 52 48 42 43 46 45 44 46 46 46 46 45 43 43 45 45 45 45 45 45 44 43 44 44
Wind_Direction
240 230 221 222 223 246 235 230 236 239 238 235 224 245 247 241 233 223 221 228 250 258 253 245 243 234 228 232 240 240 240 241 244 248 253 257 262 266 271 275 280 285 288 289
240 239 240 226 216 211 231 236 236 240 240 239 230 227 251 244 241 240 244 248 257 257 241 235 220 223 229 236 237 237 238 239 243 249 253 257 261 265 270 274 278 282 284 287
240 239 240 238 225 232 229 229 237 238 238 239 236 231 227 243 240 240 242 245 247 236 228 229 221 227 228 230 236 238 239 242 245 249 253 256 259 265 268 272 274 277 281 287
235 239 235 236 231 234 240 235 231 234 234 237 236 233 232 239 233 230 231 226 223 218 223 226 234 236 229 229 234 238 240 243 247 249 252 255 259 263 265 267 271 275 281 289
237 234 239 231 227 229 240 243 240 243 237 239 232 225 236 240 234 214 216 217 218 214 217 221 223 226 227 229 233 238 240 243 247 251 253 254 257 259 259 264 267 274 282 291
238 238 237 232 228 229 230 236 234 232 235 243 232 241 224 234 233 211 215 216 226 218 231 229 229 226 227 230 231 237 240 245 247 251 251 253 254 252 255 258 265 274 284 292
243 241 240 234 229 228 223 224 227 229 226 222 230 237 234 228 239 227 223 222 226 232 223 226 235 231 231 225 228 234 240 246 247 248 250 250 247 248 251 257 264 273 284 291
236 234 236 235 228 221 218 228 229 232 230 229 221 221 221 222 233 235 230 228 226 229 228 223 228 233 228 222 232 238 242 244 244 246 247 244 244 247 251 258 265 274 282 290
225 228 230 236 227 222 213 213 219 226 230 231 231 225 232 236 236 230 226 231 229 230 233 229 222 226 227 226 237 243 243 244 244 245 244 241 243 247 253 258 265 273 282 289
234 234 231 218 230 227 225 219 223 221 222 217 210 219 220 233 237 233 224 226 229 231 232 232 226 227 231 232 236 241 242 242 243 245 242 239 243 248 254 259 266 274 282 287
234 230 238 230 220 223 224 223 220 224 221 216 223 220 224 227 229 228 227 227 224 222 226 229 226 230 229 234 237 234 238 243 245 246 241 240 245 250 254 259 268 276 282 288
238 227 227 224 223 216 227 223 216 207 211 213 217 221 222 221 222 223 227 226 224 219 220 223 221 221 221 230 233 231 238 240 241 242 238 240 244 249 253 262 270 276 283 288
232 227 229 222 223 223 224 227 221 215 209 203 216 221 222 224 225 225 224 226 221 224 225 219 225 221 223 232 233 232 238 238 239 239 237 241 244 248 256 263 270 278 283 288
234 229 229 224 217 221 225 225 226 224 221 219 218 217 221 229 231 227 227 227 225 220 225 220 220 228 230 234 232 231 235 235 237 236 237 240 244 250 258 265 272 278 283 290
241 241 229 225 221 216 223 224 223 225 224 224 228 229 228 230 229 229 228 227 225 222 222 222 221 224 228 230 231 232 236 234 236 235 237 241 246 253 260 267 273 279 285 291
237 242 233 223 220 218 218 222 223 221 222 221 217 223 226 222 223 226 225 226 224 225 230 221 227 226 229 228 229 231 234 233 234 233 237 242 248 255 262 269 274 280 286 291
241 233 233 225 219 218 219 220 222 220 219 219 220 217 217 215 215 221 221 223 223 223 227 224 229 233 232 232 231 231 232 233 233 234 238 244 249 257 263 268 275 281 286 290
294 262 235 230 225 220 218 219 220 218 217 217 217 212 213 220 219 223 225 224 225 226 226 230 230 230 228 231 229 229 229 229 230 234 239 244 251 257 263 270 276 281 286 290
298 284 250 231 228 221 218 218 217 217 214 215 217 213 214 221 219 223 224 224 225 226 228 231 233 228 225 224 226 229 228 230 232 236 241 247 253 258 264 270 276 281 285 289
263 273 261 234 224 223 218 217 217 215 213 212 215 215 216 219 217 218 221 223 225 227 228 232 229 224 225 226 226 227 227 229 231 236 242 248 254 260 266 272 277 281 284 289
265 280 273 234 223 220 217 217 215 213 212 212 213 213 213 213 211 215 217 220 222 225 227 230 228 220 220 227 229 226 227 228 232 237 244 250 255 262 268 273 277 281 285 290
285 282 278 250 223 217 217 215 213 212 211 211 210 211 209 209 211 213 214 217 218 221 224 228 229 222 218 225 228 228 229 230 233 239 245 251 258 263 269 274 277 281 286 291
279 311 268 246 220 214 213 213 211 210 210 210 209 209 206 210 210 212 213 218 218 221 222 223 224 219 221 223 223 226 228 230 234 240 246 253 259 265 269 273 277 282 287 291
275 313 259 222 210 209 208 208 207 209 208 209 206 207 205 206 208 211 212 216 215 219 222 225 223 218 223 227 225 225 227 231 236 243 249 256 261 266 269 274 279 283 286 291
338 329 217 200 199 199 202 204 204 204 206 205 203 205 204 207 209 211 211 215 218 220 218 217 219 216 217 224 226 227 229 233 238 245 251 257 262 266 271 276 279 284 288 288
2 350 221 190 191 191 193 197 198 200 203 203 202 204 203 206 208 210 210 214 215 216 218 220 219 218 218 220 223 227 231 235 241 248 254 259 263 268 272 276 282 284 285 287
80 14 189 175 177 183 189 190 194 196 198 201 204 203 203 206 207 209 209 213 215 216 218 222 220 219 221 223 225 229 234 240 246 251 256 261 265 269 274 278 280 280 288 290